ラーセン彗星

200P/Larsen (2019)

English version
Home page
Updated on June 14, 2021

---------------------------------------------------------------------

・ プロフィール

・ 写真集

・ 軌道要素

Epoch 2019 July 16.0 TT = JDT 2458680.5                                         
T 2019 July 28.53499 TT                                 Rudenko                 
q   3.2972418            (2000.0)            P               Q                  
n   0.08993032     Peri.  133.98347     +0.97519235     -0.14011139             
a   4.9339943      Node   234.80175     +0.08856542     +0.95648255             
e   0.3317297      Incl.   12.10577     +0.20286954     +0.25594909             
P  11.0                                                                         
From 611 observations 1997 Nov. 3-2019 Dec. 20, mean residual 0".7.             

・ 光度変化

        m1 = 13.0 + 5 logΔ + 10.0 log r

        ※ 灰色の曲線は、m1 = -5 + 5 logΔ + 40 log r の光度曲線です。

---------------------------------------------------------------------

軌道要素はM.P.E.C. 2021-F20に掲載されたものです。
光度グラフはComet for Windowsで作成したものです。

---------------------------------------------------------------------

Copyright(C) Seiichi Yoshida (comet@aerith.net). All rights reserved.